"Pseudo-MPEC" for ZTF02V1

Created 2019 Feb 19 10:18:08 UT using Find_Orb

Click here for an explanation of pseudo-MPECs

 
 Astrometry: 
     ZTF02V1  C2019 02 08.28216 09 22 27.96 +05 24 52.7    ~292I 21.1 rUNEOCPI41
     ZTF02V1  C2019 02 08.29713 09 22 28.37 +05 24 53.0    ~292I 21.1 rUNEOCPI41
     ZTF02V1  C2019 02 08.30318 09 22 28.56 +05 24 52.5    ~292I 20.7 rUNEOCPI41
     ZTF02V1  C2019 02 08.36985 09 22 30.34 +05 24 53.0    ~292I 20.8 rUNEOCPI41

Station data:
(I41) Palomar Mountain--ZTF  (N33.357340 W116.859780)  US/California. 1.2-m
   f/2.44 Oschin Schmidt + CCD.

Orbital elements:  ZTF02V1
   Perihelion 2019 Mar 4.911267 +/- 41.7 TT = 21:52:13 (JD 2458547.411267)
Epoch 2019 Feb  8.0 TT = JDT 2458522.5   Earth MOID: 0.2705   Ma: 0.0431
M 353.11859714 +/- 15               (J2000 ecliptic)          AutoNEOCP
n   0.27623656 +/- 0.248            Peri.  329.46656 +/- 90
a   2.33497340 +/- 1.39             Node   190.44494 +/- 52
e   0.4603005 +/- 0.244             Incl.    2.86063 +/- 1.5
P   3.57                   H 22.7   G  0.15   U 11.8  SR
q 1.26018392 +/- 0.286    Q 3.40976289 +/- 60.9
From 4 observations 2019 Feb. 8 (2.1 hr); mean residual 0".18
Residuals in arcseconds: 
190208 I41  .13-  .03+    190208 I41  .28+  .29-    
190208 I41  .11-  .24+    190208 I41  .05-  .03+    

Ephemerides (geocentric):
Date (UTC) HH   RA              Dec         delta   r     elong  mag " sig PA
---- -- -- --  -------------   -----------  ------ ------ -----  --- ---- ---
2019 02 19 10  09 30 28.926   +05 43 26.52  .28363 1.2680 168.9 21.1  51d   2
2019 02 19 11  09 30 31.055   +05 43 34.14  .28358 1.2679 168.9 21.1  51d   2
2019 02 19 12  09 30 33.187   +05 43 41.79  .28354 1.2679 168.9 21.1  51d   2
2019 02 19 13  09 30 35.321   +05 43 49.46  .28350 1.2678 168.8 21.1  51d   2
2019 02 19 14  09 30 37.459   +05 43 57.14  .28346 1.2678 168.8 21.1  51d   2
2019 02 19 15  09 30 39.600   +05 44 04.86  .28341 1.2677 168.8 21.1  51d   2
2019 02 19 16  09 30 41.743   +05 44 12.59  .28337 1.2677 168.8 21.1  51d   2
2019 02 19 17  09 30 43.889   +05 44 20.34  .28333 1.2676 168.8 21.1  51d   2
2019 02 19 18  09 30 46.039   +05 44 28.12  .28329 1.2676 168.7 21.1  51d   2
2019 02 19 19  09 30 48.191   +05 44 35.91  .28324 1.2675 168.7 21.1  51d   2
2019 02 19 20  09 30 50.346   +05 44 43.73  .28320 1.2675 168.7 21.1  51d   2
2019 02 19 21  09 30 52.504   +05 44 51.57  .28316 1.2674 168.7 21.1  51d   2
2019 02 19 22  09 30 54.665   +05 44 59.43  .28312 1.2674 168.7 21.1  51d   2
2019 02 19 23  09 30 56.828   +05 45 07.31  .28308 1.2673 168.7 21.1  52d   2
2019 02 20 00  09 30 58.995   +05 45 15.21  .28304 1.2673 168.6 21.1  52d   2
2019 02 20 01  09 31 01.165   +05 45 23.13  .28300 1.2673 168.6 21.1  52d   2
2019 02 20 02  09 31 03.337   +05 45 31.07  .28296 1.2672 168.6 21.1  52d   2
2019 02 20 03  09 31 05.512   +05 45 39.03  .28292 1.2672 168.6 21.1  52d   2
2019 02 20 04  09 31 07.691   +05 45 47.02  .28288 1.2671 168.6 21.1  52d   2
2019 02 20 05  09 31 09.872   +05 45 55.02  .28284 1.2671 168.5 21.1  52d   2
2019 02 20 06  09 31 12.056   +05 46 03.05  .28280 1.2670 168.5 21.1  52d   2
2019 02 20 07  09 31 14.243   +05 46 11.09  .28276 1.2670 168.5 21.1  52d   2
2019 02 20 08  09 31 16.433   +05 46 19.16  .28272 1.2669 168.5 21.1  53d   2
2019 02 20 09  09 31 18.626   +05 46 27.25  .28268 1.2669 168.5 21.1  53d   2
2019 02 20 10  09 31 20.822   +05 46 35.35  .28264 1.2668 168.4 21.1  53d   2
2019 02 20 11  09 31 23.021   +05 46 43.48  .28260 1.2668 168.4 21.1  53d   2
2019 02 20 12  09 31 25.223   +05 46 51.63  .28256 1.2668 168.4 21.1  53d   2
2019 02 20 13  09 31 27.428   +05 46 59.80  .28253 1.2667 168.4 21.1  53d   2
2019 02 20 14  09 31 29.636   +05 47 07.98  .28249 1.2667 168.4 21.1  53d   2
2019 02 20 15  09 31 31.846   +05 47 16.19  .28245 1.2666 168.3 21.1  54d   3
2019 02 20 16  09 31 34.060   +05 47 24.42  .28241 1.2666 168.3 21.1  54d   3
2019 02 20 17  09 31 36.277   +05 47 32.67  .28238 1.2665 168.3 21.1  54d   3
2019 02 20 18  09 31 38.496   +05 47 40.94  .28234 1.2665 168.3 21.1  54d   3
2019 02 20 19  09 31 40.719   +05 47 49.22  .28230 1.2665 168.3 21.1  54d   3
2019 02 20 20  09 31 42.945   +05 47 57.53  .28226 1.2664 168.2 21.1  54d   3
2019 02 20 21  09 31 45.173   +05 48 05.86  .28223 1.2664 168.2 21.1  54d   3
2019 02 20 22  09 31 47.405   +05 48 14.20  .28219 1.2663 168.2 21.1  54d   3
2019 02 20 23  09 31 49.639   +05 48 22.57  .28216 1.2663 168.2 21.1  54d   3
2019 02 21 00  09 31 51.877   +05 48 30.95  .28212 1.2662 168.2 21.1  54d   3
2019 02 21 01  09 31 54.117   +05 48 39.36  .28208 1.2662 168.1 21.1  54d   3
2019 02 21 02  09 31 56.361   +05 48 47.78  .28205 1.2662 168.1 21.1  54d   3
2019 02 21 03  09 31 58.608   +05 48 56.23  .28201 1.2661 168.1 21.1  55d   3
2019 02 21 04  09 32 00.857   +05 49 04.69  .28198 1.2661 168.1 21.1  55d   3
2019 02 21 05  09 32 03.110   +05 49 13.17  .28194 1.2660 168.1 21.1  55d   3
2019 02 21 06  09 32 05.365   +05 49 21.67  .28191 1.2660 168.0 21.1  55d   3
2019 02 21 07  09 32 07.624   +05 49 30.20  .28187 1.2660 168.0 21.1  55d   3
2019 02 21 08  09 32 09.885   +05 49 38.74  .28184 1.2659 168.0 21.1  55d   3
2019 02 21 09  09 32 12.150   +05 49 47.29  .28181 1.2659 168.0 21.1  55d   3